Regional Weather Roundup
Issued by NWS Sioux Falls, SD

Home | Current Version | Previous Version | Graphics & Text | Print | Product List | Glossary On
Versions: 1 2 3 4 5 6 7 8 9 10 11 12 13 14 15 16 17 18 19 20 21 22 23 24 25 26 27 28 29 30 31 32 33 34 35 36 37 38 39 40 41 42 43 44 45 46 47 48 49 50
000
ASUS43 KFSD 222010
RWRFSD

WEATHER ROUNDUP FOR SE SOUTH DAKOTA/SW MINNESOTA/NW IOWA
NATIONAL WEATHER SERVICE SIOUX FALLS SD
200 PM CST MON DEC 22 2014

NOTE: "FAIR" INDICATES FEW OR NO CLOUDS BELOW 12,000 FEET WITH NO
SIGNIFICANT WEATHER AND OR OBSTRUCTIONS TO VISIBILITY.


SDZ038>040-050-052>070-222100-
SOUTHEAST SOUTH DAKOTA

CITY           SKY/WX    TMP DP  RH WIND       PRES   REMARKS
CHAMBERLAIN    CLOUDY    35  32  90 NW15G23   29.43S WCI  25
HURON          CLOUDY    34  31  88 NW9       29.40F WCI  27
MADISON        CLOUDY    34  34 100 SW3       29.39F
MITCHELL       CLOUDY    37  35  92 NW9       29.42S
SIOUX FALLS    DRZL/FOG  39  37  92 E3        29.39F VSB 3/4
WINNER         LGT RAIN  37  33  85 NW18      29.45F
YANKTON        CLOUDY    39  36  87 NW9       29.43R
$$

MNZ071-072-080-081-089-090-097-098-222100-
SOUTHWEST MINNESOTA

CITY           SKY/WX    TMP DP  RH WIND       PRES   REMARKS
FAIRMONT       CLOUDY    37  34  87 SE16      29.49S
JACKSON        LGT RAIN  37  36  93 SE15      29.47S
LUVERNE        CLOUDY    41  37  87 S10       29.41F FOG
MARSHALL       CLOUDY    39  36  87 SE13      29.44S
MONTEVIDEO     DRIZZLE   37  37 100 S15       29.47S
PIPESTONE      DRIZZLE   37  37 100 S9        29.40S
REDWOOD FALLS  LGT RAIN  39  37  92 SE15      29.48F FOG
TRACY          DRIZZLE   39  38  95 SE13      29.45S
WINDOM         RAIN      37  37 100 SE10      29.46S
WORTHINGTON    CLOUDY    39 -11  11 SE13      29.43F
$$

IAZ001>003-012>014-020>022-031-032-NEZ013-014-SDZ071-222100-
NORTHWEST IOWA

CITY           SKY/WX    TMP DP  RH WIND       PRES   REMARKS
CHEROKEE       DRIZZLE   40  40 100 SE9       29.42F
DENISON        CLOUDY    41  41 100 SE12      29.41S
ESTHERVILLE    CLOUDY    37  37 100 SE17      29.46F FOG
LE MARS        CLOUDY    41  41 100 SE7       29.41F FOG
ORANGE CITY    DRIZZLE   41  39  93 SE7       29.41S
SHELDON        CLOUDY    39  39 100 SE14      29.41S FOG
SIOUX CITY     CLOUDY    42  40  92 CALM      29.41S FOG
SPENCER        LGT RAIN  41  38  89 SE12      29.44F
STORM LAKE     CLOUDY    39  39 100 SE14G20   29.44S
$$

ABBREVIATIONS USED IN REMARKS
   TC - TEMPERATURE IN CELSIUS
  WCI - WIND CHILL INDEX
   HX - HEAT INDEX
  VSB - VISIBILITY




USA.gov is the U.S. government's official web portal to all federal, state and local government web resources and services.